This is the latest recevied weather packets stored in our database for station/object K2CAT. If no packets are shown the sender has not sent any weather packets the latest 10 day(s).
| Time | Temp. | Humidity | Pressure | Rain* | Wind** | Luminosity | Snow |
|---|---|---|---|---|---|---|---|
| 1777311931 | 22.78° C | 35% | 1023 hPa | 0 mm | - | 688 W/m² | - |
| 1777311627 | 22.22° C | 38% | 1023.3 hPa | 0 mm | - | 692 W/m² | - |
| 1777311326 | 22.22° C | 38% | 1023.2 hPa | 0 mm | - | 694 W/m² | - |
| 1777311023 | 22.22° C | 36% | 1023.5 hPa | 0 mm | - | 697 W/m² | - |
| 1777310721 | 22.22° C | 41% | 1023.4 hPa | 0 mm | - | 699 W/m² | - |
| 1777310417 | 22.22° C | 46% | 1023.5 hPa | 0 mm | - | 700 W/m² | - |
| 1777310115 | 21.67° C | 39% | 1023.7 hPa | 0 mm | - | 703 W/m² | - |
| 1777309812 | 21.11° C | 40% | 1023.7 hPa | 0 mm | - | 705 W/m² | - |
| 1777309510 | 21.11° C | 44% | 1023.9 hPa | 0 mm | - | 705 W/m² | - |
| 1777309207 | 21.11° C | 45% | 1024 hPa | 0 mm | - | 706 W/m² | - |
| 1777308905 | 20.56° C | 40% | 1024 hPa | 0 mm | - | 708 W/m² | - |
| 1777308600 | 21.67° C | 41% | 1023.9 hPa | 0 mm | - | 707 W/m² | - |
| 1777308296 | 21.11° C | 40% | 1024 hPa | 0 mm | - | 707 W/m² | - |
| 1777307991 | 21.11° C | 42% | 1024.1 hPa | 0 mm | - | 706 W/m² | - |
| 1777307690 | 21.11° C | 43% | 1024 hPa | 0 mm | - | 706 W/m² | - |
| 1777307386 | 21.11° C | 42% | 1024.2 hPa | 0 mm | - | 703 W/m² | - |
| 1777307083 | 21.11° C | 44% | 1024 hPa | 0 mm | - | 701 W/m² | - |
| 1777306781 | 20° C | 46% | 1024.3 hPa | 0 mm | - | 700 W/m² | - |
| 1777306478 | 20° C | 48% | 1024.1 hPa | 0 mm | - | 696 W/m² | - |
| 1777306173 | 20.56° C | 42% | 1024.2 hPa | 0 mm | - | 694 W/m² | - |
| 1777305868 | 20° C | 41% | 1024.2 hPa | 0 mm | - | 690 W/m² | - |
| 1777305566 | 20° C | 43% | 1024.2 hPa | 0 mm | - | 687 W/m² | - |
| 1777305261 | 20.56° C | 40% | 1024.2 hPa | 0 mm | - | 683 W/m² | - |
| 1777304960 | 20.56° C | 45% | 1024.3 hPa | 0 mm | - | 677 W/m² | - |
| 1777304657 | 19.44° C | 43% | 1024.5 hPa | 0 mm | - | 674 W/m² | - |
* Rain latest hour (hover to see other rain measurements)
** Current wind speed in m/s (hover to see current wind gust speed)